| time (UTC) | temp F | wind direction | speed MPH | gust MPH | rain 1hr in | rain 24hr in | rain mn in | humidity % | barometer mb |
| 20260505013026 | 56 | 150 | 0.0 | 0.0 | 0.00 | 0.00 | 0.00 | 55 | 1006.9 |
| 20260505011526 | 57 | 150 | 0.0 | 0.0 | 0.00 | 0.00 | 0.00 | 55 | 1006.8 |
| 20260505010025 | 57 | 151 | 0.0 | 0.0 | 0.00 | 0.00 | 0.00 | 55 | 1006.7 |
| 20260505004550 | 58 | 151 | 0.0 | 0.0 | 0.00 | 0.00 | 0.00 | 53 | 1006.5 |
| 20260505003024 | 59 | 207 | 0.0 | 0.0 | 0.00 | 0.00 | 0.00 | 52 | 1006.4 |
| 20260505001524 | 60 | 207 | 0.0 | 0.0 | 0.00 | 0.00 | 0.00 | 48 | 1006.2 |
| 20260505000023 | 62 | 207 | 0.0 | 0.0 | 0.00 | 0.00 | 0.00 | 47 | 1006.1 |
| 20260504234523 | 62 | 211 | 1.0 | 5.0 | 0.00 | 0.00 | 0.00 | 45 | 1006.0 |
| 20260504233024 | 63 | 208 | 2.0 | 9.0 | 0.00 | 0.00 | 0.00 | 45 | 1005.7 |
| 20260504231522 | 63 | 200 | 0.0 | 7.0 | 0.00 | 0.00 | 0.00 | 45 | 1005.6 |
| 20260504230021 | 63 | 220 | 4.0 | 12.0 | 0.00 | 0.00 | 0.00 | 44 | 1005.5 |
| 20260504224526 | 64 | 181 | 4.0 | 10.0 | 0.00 | 0.00 | 0.00 | 44 | 1005.3 |
| 20260504223020 | 64 | 196 | 3.0 | 10.0 | 0.00 | 0.00 | 0.00 | 44 | 1005.4 |
| 20260504221522 | 64 | 214 | 7.0 | 15.0 | 0.00 | 0.00 | 0.00 | 43 | 1005.4 |
| 20260504220019 | 64 | 221 | 4.0 | 10.0 | 0.00 | 0.00 | 0.00 | 43 | 1005.3 |
| 20260504214518 | 65 | 190 | 5.0 | 17.0 | 0.00 | 0.00 | 0.00 | 43 | 1005.2 |
| 20260504213032 | 65 | 186 | 6.0 | 12.0 | 0.00 | 0.00 | 0.00 | 44 | 1005.2 |
| 20260504211516 | 65 | 230 | 1.0 | 13.0 | 0.00 | 0.00 | 0.00 | 44 | 1005.4 |
| 20260504210014 | 65 | 157 | 5.0 | 17.0 | 0.00 | 0.00 | 0.00 | 42 | 1005.5 |
| 20260504204513 | 66 | 188 | 9.0 | 15.0 | 0.00 | 0.00 | 0.00 | 42 | 1005.5 |
| 20260504203013 | 66 | 307 | 2.0 | 16.0 | 0.00 | 0.00 | 0.00 | 43 | 1005.6 |
| 20260504201511 | 65 | 213 | 9.0 | 17.0 | 0.00 | 0.00 | 0.00 | 42 | 1005.8 |
| 20260504200009 | 65 | 210 | 5.0 | 18.0 | 0.00 | 0.00 | 0.00 | 44 | 1005.9 |
| 20260504194512 | 64 | 220 | 6.0 | 16.0 | 0.00 | 0.00 | 0.00 | 44 | 1006.0 |
| 20260504193005 | 63 | 201 | 5.0 | 21.0 | 0.00 | 0.00 | 0.00 | 46 | 1006.1 |
| 20260504191503 | 62 | 325 | 4.0 | 18.0 | 0.00 | 0.00 | 0.00 | 46 | 1006.2 |
| 20260504190002 | 63 | 213 | 9.0 | 22.0 | 0.00 | 0.00 | 0.00 | 45 | 1006.3 |
| 20260504184609 | 62 | 231 | 4.0 | 15.0 | 0.00 | 0.00 | 0.00 | 47 | 1006.3 |
| 20260504183058 | 62 | 198 | 7.0 | 20.0 | 0.00 | 0.00 | 0.00 | 47 | 1006.3 |
| 20260504181559 | 60 | 192 | 7.0 | 17.0 | 0.00 | 0.00 | 0.00 | 48 | 1006.3 |
| 20260504180055 | 60 | 302 | 8.0 | 21.0 | 0.00 | 0.00 | 0.00 | 47 | 1006.4 |
| 20260504174553 | 59 | 194 | 9.0 | 19.0 | 0.00 | 0.00 | 0.00 | 48 | 1006.7 |
| 20260504173152 | 59 | 207 | 11.0 | 23.0 | 0.00 | 0.00 | 0.00 | 48 | 1006.8 |
| 20260504171552 | 60 | 200 | 9.0 | 18.0 | 0.00 | 0.00 | 0.00 | 48 | 1006.8 |
| 20260504081539 | 44 | 186 | 2.0 | 7.0 | 0.00 | 0.00 | 0.00 | 80 | 1008.2 |
| 20260504050016 | 43 | 202 | 5.0 | 10.0 | 0.00 | 0.00 | 0.00 | 70 | 1009.0 |
| 20260504044514 | 42 | 213 | 0.0 | 2.0 | 0.00 | 0.00 | 0.00 | 64 | 1009.1 |
| 20260504043011 | 42 | 179 | 1.0 | 7.0 | 0.00 | 0.00 | 0.00 | 64 | 1009.1 |
| 20260504041607 | 41 | 211 | 0.0 | 3.0 | 0.00 | 0.00 | 0.00 | 60 | 1009.1 |
| 20260504040007 | 40 | 197 | 0.0 | 5.0 | 0.00 | 0.00 | 0.00 | 59 | 1009.1 |
| 20260504034507 | 40 | 229 | 0.0 | 4.0 | 0.00 | 0.00 | 0.00 | 62 | 1009.1 |
| 20260504033003 | 40 | 298 | 0.0 | 0.0 | 0.00 | 0.00 | 0.00 | 66 | 1009.1 |
| 20260504031503 | 41 | 298 | 0.0 | 0.0 | 0.00 | 0.00 | 0.00 | 59 | 1009.1 |
| 20260504030003 | 41 | 298 | 0.0 | 0.0 | 0.00 | 0.00 | 0.00 | 54 | 1009.1 |
| 20260504024507 | 41 | 298 | 0.0 | 3.0 | 0.00 | 0.00 | 0.00 | 53 | 1009.2 |
| 20260504023002 | 41 | 316 | 0.0 | 6.0 | 0.00 | 0.00 | 0.00 | 51 | 1009.3 |
| 20260504021502 | 40 | 316 | 0.0 | 3.0 | 0.00 | 0.00 | 0.00 | 54 | 1009.3 |
| 20260504020100 | 40 | 309 | 0.0 | 7.0 | 0.00 | 0.00 | 0.00 | 54 | 1009.4 |
| 20260504014600 | 40 | 316 | 0.0 | 0.0 | 0.00 | 0.00 | 0.00 | 56 | 1009.2 |